Year,Month,Day,Hour,Minute,Value (Times are PST for temperature in C)
2006,10,02,00,00,6.90
2006,10,02,00,01,6.90
2006,10,02,00,02,6.80
2006,10,02,00,03,6.80
2006,10,02,00,04,6.80
2006,10,02,00,05,6.80
2006,10,02,00,06,6.80
2006,10,02,00,07,6.80
2006,10,02,00,08,6.80
2006,10,02,00,09,6.80
2006,10,02,00,10,6.80
2006,10,02,00,11,6.80
2006,10,02,00,12,6.80
2006,10,02,00,13,6.80
2006,10,02,00,14,6.80
2006,10,02,00,15,6.80
2006,10,02,00,16,6.80
2006,10,02,00,17,6.80
2006,10,02,00,18,6.80
2006,10,02,00,19,6.80
2006,10,02,00,20,6.80
2006,10,02,00,21,6.80
2006,10,02,00,22,6.80
2006,10,02,00,23,6.80
2006,10,02,00,24,6.80
2006,10,02,00,25,6.80
2006,10,02,00,26,6.80
2006,10,02,00,27,6.80
2006,10,02,00,28,6.80
2006,10,02,00,29,6.80
2006,10,02,00,30,6.80
2006,10,02,00,31,6.80
2006,10,02,00,32,6.80
2006,10,02,00,33,6.80
2006,10,02,00,34,6.80
2006,10,02,00,35,6.80
2006,10,02,00,36,6.80
2006,10,02,00,37,6.80
2006,10,02,00,38,6.80
2006,10,02,00,39,6.80
2006,10,02,00,40,6.80
2006,10,02,00,41,6.80
2006,10,02,00,42,6.80
2006,10,02,00,43,6.80
2006,10,02,00,44,6.80
2006,10,02,00,45,6.80
2006,10,02,00,46,6.80
2006,10,02,00,47,6.90
2006,10,02,00,48,6.90
2006,10,02,00,49,6.90
2006,10,02,00,50,6.80
2006,10,02,00,51,6.80
2006,10,02,00,52,6.80
2006,10,02,00,53,6.80
2006,10,02,00,54,6.80
2006,10,02,00,55,6.80
2006,10,02,00,56,6.80
2006,10,02,00,57,6.80
2006,10,02,00,58,6.80
2006,10,02,00,59,6.80
2006,10,02,01,00,6.80
2006,10,02,01,01,6.80
2006,10,02,01,02,6.80
2006,10,02,01,03,6.80
2006,10,02,01,04,6.80
2006,10,02,01,05,6.80
2006,10,02,01,06,6.80
2006,10,02,01,07,6.80
2006,10,02,01,08,6.70
2006,10,02,01,09,6.70
2006,10,02,01,10,6.70
2006,10,02,01,11,6.70
2006,10,02,01,12,6.70
2006,10,02,01,13,6.80
2006,10,02,01,14,6.70
2006,10,02,01,15,6.70
2006,10,02,01,16,6.70
2006,10,02,01,17,6.70
2006,10,02,01,18,6.70
2006,10,02,01,19,6.70
2006,10,02,01,20,6.70
2006,10,02,01,21,6.70
2006,10,02,01,22,6.60
2006,10,02,01,23,6.60
2006,10,02,01,24,6.60
2006,10,02,01,25,6.60
2006,10,02,01,26,6.60
2006,10,02,01,27,6.60
2006,10,02,01,28,6.60
2006,10,02,01,29,6.60
2006,10,02,01,30,6.60
2006,10,02,01,31,6.60
2006,10,02,01,32,6.60
2006,10,02,01,33,6.60
2006,10,02,01,34,6.60
2006,10,02,01,35,6.60
2006,10,02,01,36,6.60
2006,10,02,01,37,6.60
2006,10,02,01,38,6.60
2006,10,02,01,39,6.60
2006,10,02,01,40,6.60
2006,10,02,01,41,6.60
2006,10,02,01,42,6.60
2006,10,02,01,43,6.60
2006,10,02,01,44,6.60
2006,10,02,01,45,6.60
2006,10,02,01,46,6.60
2006,10,02,01,47,6.50
2006,10,02,01,48,6.50
2006,10,02,01,49,6.50
2006,10,02,01,50,6.50
2006,10,02,01,51,6.50
2006,10,02,01,52,6.50
2006,10,02,01,53,6.50
2006,10,02,01,54,6.40
2006,10,02,01,55,6.40
2006,10,02,01,56,6.40
2006,10,02,01,57,6.40
2006,10,02,01,58,6.40
2006,10,02,01,59,6.40
2006,10,02,02,00,6.40
2006,10,02,02,01,6.40
2006,10,02,02,02,6.40
2006,10,02,02,03,6.30
2006,10,02,02,04,6.40
2006,10,02,02,05,6.40
2006,10,02,02,06,6.30
2006,10,02,02,07,6.30
2006,10,02,02,08,6.30
2006,10,02,02,09,6.30
2006,10,02,02,10,6.30
2006,10,02,02,11,6.30
2006,10,02,02,12,6.30
2006,10,02,02,13,6.30
2006,10,02,02,14,6.30
2006,10,02,02,15,6.30
2006,10,02,02,16,6.30
2006,10,02,02,17,6.30
2006,10,02,02,18,6.30
2006,10,02,02,19,6.30
2006,10,02,02,20,6.30
2006,10,02,02,21,6.30
2006,10,02,02,22,6.30
2006,10,02,02,23,6.20
2006,10,02,02,24,6.20
2006,10,02,02,25,6.20
2006,10,02,02,26,6.20
2006,10,02,02,27,6.20
2006,10,02,02,28,6.20
2006,10,02,02,29,6.20
2006,10,02,02,30,6.20
2006,10,02,02,31,6.20
2006,10,02,02,32,6.20
2006,10,02,02,33,6.20
2006,10,02,02,34,6.10
2006,10,02,02,35,6.10
2006,10,02,02,36,6.10
2006,10,02,02,37,6.10
2006,10,02,02,38,6.10
2006,10,02,02,39,6.00
2006,10,02,02,40,6.00
2006,10,02,02,41,6.00
2006,10,02,02,42,6.00
2006,10,02,02,43,6.00
2006,10,02,02,44,5.90
2006,10,02,02,45,5.90
2006,10,02,02,46,5.90
2006,10,02,02,47,5.90
2006,10,02,02,48,5.90
2006,10,02,02,49,5.90
2006,10,02,02,50,5.90
2006,10,02,02,51,5.90
2006,10,02,02,52,5.90
2006,10,02,02,53,5.90
2006,10,02,02,54,5.90
2006,10,02,02,55,5.90
2006,10,02,02,56,5.90
2006,10,02,02,57,5.90
2006,10,02,02,58,5.90
2006,10,02,02,59,5.90
2006,10,02,03,00,5.90
2006,10,02,03,01,5.90
2006,10,02,03,02,6.00
2006,10,02,03,03,6.00
2006,10,02,03,04,6.00
2006,10,02,03,05,6.00
2006,10,02,03,06,6.00
2006,10,02,03,07,6.00
2006,10,02,03,08,6.00
2006,10,02,03,09,6.00
2006,10,02,03,10,6.00
2006,10,02,03,11,6.00
2006,10,02,03,12,6.00
2006,10,02,03,13,6.00
2006,10,02,03,14,6.00
2006,10,02,03,15,6.00
2006,10,02,03,16,5.90
2006,10,02,03,17,5.90
2006,10,02,03,18,5.90
2006,10,02,03,19,5.90
2006,10,02,03,20,5.90
2006,10,02,03,21,5.90
2006,10,02,03,22,5.90
2006,10,02,03,23,5.80
2006,10,02,03,24,5.80
2006,10,02,03,25,5.80
2006,10,02,03,26,5.80
2006,10,02,03,27,5.80
2006,10,02,03,28,5.70
2006,10,02,03,29,5.70
2006,10,02,03,30,5.70
2006,10,02,03,31,5.70
2006,10,02,03,32,5.70
2006,10,02,03,33,5.70
2006,10,02,03,34,5.60
2006,10,02,03,35,5.60
2006,10,02,03,36,5.60
2006,10,02,03,37,5.60
2006,10,02,03,38,5.60
2006,10,02,03,39,5.60
2006,10,02,03,40,5.60
2006,10,02,03,41,5.60
2006,10,02,03,42,5.60
2006,10,02,03,43,5.60
2006,10,02,03,44,5.60
2006,10,02,03,45,5.50
2006,10,02,03,46,5.50
2006,10,02,03,47,5.50
2006,10,02,03,48,5.50
2006,10,02,03,49,5.50
2006,10,02,03,50,5.50
2006,10,02,03,51,5.50
2006,10,02,03,52,5.50
2006,10,02,03,53,5.50
2006,10,02,03,54,5.50
2006,10,02,03,55,5.50
2006,10,02,03,56,5.50
2006,10,02,03,57,5.50
2006,10,02,03,58,5.60
2006,10,02,03,59,5.60
2006,10,02,04,00,5.60
2006,10,02,04,01,5.60
2006,10,02,04,02,5.60
2006,10,02,04,03,5.60
2006,10,02,04,04,5.60
2006,10,02,04,05,5.60
2006,10,02,04,06,5.60
2006,10,02,04,07,5.60
2006,10,02,04,08,5.60
2006,10,02,04,09,5.60
2006,10,02,04,10,5.60
2006,10,02,04,11,5.60
2006,10,02,04,12,5.60
2006,10,02,04,13,5.60
2006,10,02,04,14,5.50
2006,10,02,04,15,5.50
2006,10,02,04,16,5.50
2006,10,02,04,17,5.40
2006,10,02,04,18,5.40
2006,10,02,04,19,5.40
2006,10,02,04,20,5.30
2006,10,02,04,21,5.30
2006,10,02,04,22,5.30
2006,10,02,04,23,5.30
2006,10,02,04,24,5.30
2006,10,02,04,25,5.30
2006,10,02,04,26,5.30
2006,10,02,04,27,5.30
2006,10,02,04,28,5.20
2006,10,02,04,29,5.20
2006,10,02,04,30,5.20
2006,10,02,04,31,5.20
2006,10,02,04,32,5.20
2006,10,02,04,33,5.20
2006,10,02,04,34,5.20
2006,10,02,04,35,5.20
2006,10,02,04,36,5.20
2006,10,02,04,37,5.20
2006,10,02,04,38,5.20
2006,10,02,04,39,5.20
2006,10,02,04,40,5.20
2006,10,02,04,41,5.20
2006,10,02,04,42,5.10
2006,10,02,04,43,5.10
2006,10,02,04,44,5.10
2006,10,02,04,45,5.10
2006,10,02,04,46,5.10
2006,10,02,04,47,5.10
2006,10,02,04,48,5.10
2006,10,02,04,49,5.10
2006,10,02,04,50,5.10
2006,10,02,04,51,5.10
2006,10,02,04,52,5.10
2006,10,02,04,53,5.10
2006,10,02,04,54,5.10
2006,10,02,04,55,5.10
2006,10,02,04,56,5.10
2006,10,02,04,57,5.10
2006,10,02,04,58,5.10
2006,10,02,04,59,5.10
2006,10,02,05,00,5.00
2006,10,02,05,01,5.00
2006,10,02,05,02,5.00
2006,10,02,05,03,5.00
2006,10,02,05,04,5.00
2006,10,02,05,05,5.00
2006,10,02,05,06,5.00
2006,10,02,05,07,5.00
2006,10,02,05,08,5.00
2006,10,02,05,09,5.00
2006,10,02,05,10,4.90
2006,10,02,05,11,4.90
2006,10,02,05,12,4.90
2006,10,02,05,13,4.90
2006,10,02,05,14,4.80
2006,10,02,05,15,4.80
2006,10,02,05,16,4.80
2006,10,02,05,17,4.80
2006,10,02,05,18,4.70
2006,10,02,05,19,4.70
2006,10,02,05,20,4.70
2006,10,02,05,21,4.70
2006,10,02,05,22,4.70
2006,10,02,05,23,4.60
2006,10,02,05,24,4.60
2006,10,02,05,25,4.60
2006,10,02,05,26,4.60
2006,10,02,05,27,4.60
2006,10,02,05,28,4.50
2006,10,02,05,29,4.50
2006,10,02,05,30,4.50
2006,10,02,05,31,4.50
2006,10,02,05,32,4.50
2006,10,02,05,33,4.50
2006,10,02,05,34,4.50
2006,10,02,05,35,4.50
2006,10,02,05,36,4.50
2006,10,02,05,37,4.50
2006,10,02,05,38,4.50
2006,10,02,05,39,4.50
2006,10,02,05,40,4.50
2006,10,02,05,41,4.50
2006,10,02,05,42,4.50
2006,10,02,05,43,4.40
2006,10,02,05,44,4.50
2006,10,02,05,45,4.40
2006,10,02,05,46,4.40
2006,10,02,05,47,4.40
2006,10,02,05,48,4.40
2006,10,02,05,49,4.40
2006,10,02,05,50,4.40
2006,10,02,05,51,4.40
2006,10,02,05,52,4.50
2006,10,02,05,53,4.50
2006,10,02,05,54,4.50
2006,10,02,05,55,4.50
2006,10,02,05,56,4.50
2006,10,02,05,57,4.50
2006,10,02,05,58,4.50
2006,10,02,05,59,4.50
2006,10,02,06,00,4.50
2006,10,02,06,01,4.50
2006,10,02,06,02,4.50
2006,10,02,06,03,4.50
2006,10,02,06,04,4.50
2006,10,02,06,05,4.50
2006,10,02,06,06,4.50
2006,10,02,06,07,4.50
2006,10,02,06,08,4.50
2006,10,02,06,09,4.50
2006,10,02,06,10,4.50
2006,10,02,06,11,4.50
2006,10,02,06,12,4.50
2006,10,02,06,13,4.50
2006,10,02,06,14,4.50
2006,10,02,06,15,4.50
2006,10,02,06,16,4.50
2006,10,02,06,17,4.50
2006,10,02,06,18,4.50
2006,10,02,06,19,4.50
2006,10,02,06,20,4.60
2006,10,02,06,21,4.60
2006,10,02,06,22,4.60
2006,10,02,06,23,4.60
2006,10,02,06,24,4.60
2006,10,02,06,25,4.60
2006,10,02,06,26,4.60
2006,10,02,06,27,4.60
2006,10,02,06,28,4.60
2006,10,02,06,29,4.60
2006,10,02,06,30,4.60
2006,10,02,06,31,4.60
2006,10,02,06,32,4.60
2006,10,02,06,33,4.60
2006,10,02,06,34,4.60
2006,10,02,06,35,4.60
2006,10,02,06,36,4.60
2006,10,02,06,37,4.70
2006,10,02,06,38,4.70
2006,10,02,06,39,4.70
2006,10,02,06,40,4.70
2006,10,02,06,41,4.70
2006,10,02,06,42,4.70
2006,10,02,06,43,4.70
2006,10,02,06,44,4.70
2006,10,02,06,45,4.70
2006,10,02,06,46,4.70
2006,10,02,06,47,4.70
2006,10,02,06,48,4.70
2006,10,02,06,49,4.70
2006,10,02,06,50,4.70
2006,10,02,06,51,4.70
2006,10,02,06,52,4.70
2006,10,02,06,53,4.70
2006,10,02,06,54,4.70
2006,10,02,06,55,4.70
2006,10,02,06,56,4.70
2006,10,02,06,57,4.70
2006,10,02,06,58,4.70
2006,10,02,06,59,4.70
2006,10,02,07,00,4.70
2006,10,02,07,01,4.70
2006,10,02,07,02,4.70
2006,10,02,07,03,4.70
2006,10,02,07,04,4.70
2006,10,02,07,05,4.70
2006,10,02,07,06,4.70
2006,10,02,07,07,4.70
2006,10,02,07,08,4.80
2006,10,02,07,09,4.80
2006,10,02,07,10,4.80
2006,10,02,07,11,4.80
2006,10,02,07,12,4.80
2006,10,02,07,13,4.80
2006,10,02,07,14,4.80
2006,10,02,07,15,4.90
2006,10,02,07,16,4.90
2006,10,02,07,17,4.90
2006,10,02,07,18,4.80
2006,10,02,07,19,4.80
2006,10,02,07,20,4.90
2006,10,02,07,21,4.90
2006,10,02,07,22,4.90
2006,10,02,07,23,4.90
2006,10,02,07,24,4.90
2006,10,02,07,25,4.90
2006,10,02,07,26,4.80
2006,10,02,07,27,4.80
2006,10,02,07,28,4.80
2006,10,02,07,29,4.80
2006,10,02,07,30,4.90
2006,10,02,07,31,4.90
2006,10,02,07,32,4.90
2006,10,02,07,33,4.90
2006,10,02,07,34,4.90
2006,10,02,07,35,4.90
2006,10,02,07,36,4.90
2006,10,02,07,37,4.90
2006,10,02,07,38,5.00
2006,10,02,07,39,5.00
2006,10,02,07,40,5.10
2006,10,02,07,41,5.10
2006,10,02,07,42,5.10
2006,10,02,07,43,5.10
2006,10,02,07,44,5.20
2006,10,02,07,45,5.20
2006,10,02,07,46,5.30
2006,10,02,07,47,5.30
2006,10,02,07,48,5.40
2006,10,02,07,49,5.40
2006,10,02,07,50,5.40
2006,10,02,07,51,5.40
2006,10,02,07,52,5.40
2006,10,02,07,53,5.50
2006,10,02,07,54,5.50
2006,10,02,07,55,5.50
2006,10,02,07,56,5.50
2006,10,02,07,57,5.60
2006,10,02,07,58,5.60
2006,10,02,07,59,5.60
2006,10,02,08,00,5.60
2006,10,02,08,01,5.60
2006,10,02,08,02,5.60
2006,10,02,08,03,5.70
2006,10,02,08,04,5.70
2006,10,02,08,05,5.70
2006,10,02,08,06,5.70
2006,10,02,08,07,5.70
2006,10,02,08,08,5.70
2006,10,02,08,09,5.80
2006,10,02,08,10,5.80
2006,10,02,08,11,5.80
2006,10,02,08,12,5.80
2006,10,02,08,13,5.80
2006,10,02,08,14,5.80
2006,10,02,08,15,5.80
2006,10,02,08,16,5.80
2006,10,02,08,17,5.80
2006,10,02,08,18,5.90
2006,10,02,08,19,5.90
2006,10,02,08,20,5.90
2006,10,02,08,21,5.90
2006,10,02,08,22,6.00
2006,10,02,08,23,6.00
2006,10,02,08,24,6.10
2006,10,02,08,25,6.10
2006,10,02,08,26,6.10
2006,10,02,08,27,6.10
2006,10,02,08,28,6.20
2006,10,02,08,29,6.20
2006,10,02,08,30,6.20
2006,10,02,08,31,6.20
2006,10,02,08,32,6.20
2006,10,02,08,33,6.30
2006,10,02,08,34,6.30
2006,10,02,08,35,6.30
2006,10,02,08,36,6.40
2006,10,02,08,37,6.40
2006,10,02,08,38,6.40
2006,10,02,08,39,6.50
2006,10,02,08,40,6.50
2006,10,02,08,41,6.60
2006,10,02,08,42,6.60
2006,10,02,08,43,6.70
2006,10,02,08,44,6.70
2006,10,02,08,45,6.80
2006,10,02,08,46,6.80
2006,10,02,08,47,6.90
2006,10,02,08,48,6.90
2006,10,02,08,49,7.00
2006,10,02,08,50,7.00
2006,10,02,08,51,7.10
2006,10,02,08,52,7.20
2006,10,02,08,53,7.20
2006,10,02,08,54,7.20
2006,10,02,08,55,7.20
2006,10,02,08,56,7.30
2006,10,02,08,57,7.30
2006,10,02,08,58,7.30
2006,10,02,08,59,7.40
2006,10,02,09,00,7.40
2006,10,02,09,01,7.40
2006,10,02,09,02,7.40
2006,10,02,09,03,7.50
2006,10,02,09,04,7.50
2006,10,02,09,05,7.60
2006,10,02,09,06,7.60
2006,10,02,09,07,7.70
2006,10,02,09,08,7.70
2006,10,02,09,09,7.80
2006,10,02,09,10,7.80
2006,10,02,09,11,7.90
2006,10,02,09,12,7.90
2006,10,02,09,13,8.00
2006,10,02,09,14,8.10
2006,10,02,09,15,8.10
2006,10,02,09,16,8.20
2006,10,02,09,17,8.30
2006,10,02,09,18,8.30
2006,10,02,09,19,8.40
2006,10,02,09,20,8.40
2006,10,02,09,21,8.50
2006,10,02,09,22,8.60
2006,10,02,09,23,8.70
2006,10,02,09,24,8.80
2006,10,02,09,25,8.90
2006,10,02,09,26,9.00
2006,10,02,09,27,9.10
2006,10,02,09,28,9.10
2006,10,02,09,29,9.20
2006,10,02,09,30,9.30
2006,10,02,09,31,9.30
2006,10,02,09,32,9.40
2006,10,02,09,33,9.50
2006,10,02,09,34,9.50
2006,10,02,09,35,9.60
2006,10,02,09,36,9.60
2006,10,02,09,37,9.60
2006,10,02,09,38,9.70
2006,10,02,09,39,9.70
2006,10,02,09,40,9.70
2006,10,02,09,41,9.80
2006,10,02,09,42,9.80
2006,10,02,09,43,9.80
2006,10,02,09,44,9.90
2006,10,02,09,45,9.90
2006,10,02,09,46,10.00
2006,10,02,09,47,10.10
2006,10,02,09,48,10.20
2006,10,02,09,49,10.30
2006,10,02,09,50,10.40
2006,10,02,09,51,10.50
2006,10,02,09,52,10.60
2006,10,02,09,53,10.70
2006,10,02,09,54,10.70
2006,10,02,09,55,10.80
2006,10,02,09,56,10.80
2006,10,02,09,57,10.80
2006,10,02,09,58,10.90
2006,10,02,09,59,10.90
2006,10,02,10,00,11.00
2006,10,02,10,01,11.00
2006,10,02,10,02,11.10
2006,10,02,10,03,11.10
2006,10,02,10,04,11.20
2006,10,02,10,05,11.20
2006,10,02,10,06,11.20
2006,10,02,10,07,11.20
2006,10,02,10,08,11.20
2006,10,02,10,09,11.20
2006,10,02,10,10,11.20
2006,10,02,10,11,11.20
2006,10,02,10,12,11.20
2006,10,02,10,13,11.20
2006,10,02,16,26,14.30
2006,10,02,16,27,14.30
2006,10,02,16,28,14.30
2006,10,02,16,29,14.30
2006,10,02,16,30,14.30
2006,10,02,16,31,14.30
2006,10,02,16,32,14.20
2006,10,02,16,33,14.20
2006,10,02,16,34,14.20
2006,10,02,16,35,14.20
2006,10,02,16,36,14.30
2006,10,02,16,37,14.30
2006,10,02,16,38,14.30
2006,10,02,16,39,14.30
2006,10,02,16,40,14.30
2006,10,02,16,41,14.20
2006,10,02,16,42,14.20
2006,10,02,16,43,14.20
2006,10,02,16,44,14.20
2006,10,02,16,45,14.20
2006,10,02,16,46,14.20
2006,10,02,16,47,14.20
2006,10,02,16,48,14.10
2006,10,02,16,49,14.10
2006,10,02,16,50,14.20
2006,10,02,16,51,14.20
2006,10,02,16,52,14.30
2006,10,02,16,53,14.30
2006,10,02,16,54,14.40
2006,10,02,16,55,14.30
2006,10,02,16,56,14.30
2006,10,02,16,57,14.30
2006,10,02,16,58,14.20
2006,10,02,16,59,14.20
2006,10,02,17,00,14.10
2006,10,02,17,01,14.10
2006,10,02,17,02,14.00
2006,10,02,17,03,14.00
2006,10,02,17,04,13.90
2006,10,02,17,05,13.90
2006,10,02,17,06,13.90
2006,10,02,17,07,13.90
2006,10,02,17,08,13.90
2006,10,02,17,09,13.90
2006,10,02,17,10,13.90
2006,10,02,17,11,14.00
2006,10,02,17,12,14.00
2006,10,02,17,13,14.00
2006,10,02,17,14,14.00
2006,10,02,17,15,14.00
2006,10,02,17,16,14.00
2006,10,02,17,17,13.90
2006,10,02,17,18,13.90
2006,10,02,17,19,13.90
2006,10,02,17,20,13.90
2006,10,02,17,21,13.90
2006,10,02,17,22,13.90
2006,10,02,17,23,13.90
2006,10,02,17,24,13.90
2006,10,02,17,25,14.00
2006,10,02,17,26,14.00
2006,10,02,17,27,14.10
2006,10,02,17,28,14.10
2006,10,02,17,29,14.10
2006,10,02,17,30,14.10
2006,10,02,17,31,14.10
2006,10,02,17,32,14.10
2006,10,02,17,33,14.00
2006,10,02,17,34,14.00
2006,10,02,17,35,14.00
2006,10,02,17,36,14.00
2006,10,02,17,37,14.10
2006,10,02,17,38,14.10
2006,10,02,17,39,14.10
2006,10,02,17,40,14.10
2006,10,02,17,41,14.10
2006,10,02,17,42,14.10
2006,10,02,17,43,14.10
2006,10,02,17,44,14.10
2006,10,02,17,45,14.10
2006,10,02,17,46,14.10
2006,10,02,17,47,14.10
2006,10,02,17,48,14.10
2006,10,02,17,49,14.10
2006,10,02,17,50,14.10
2006,10,02,17,51,14.00
2006,10,02,17,52,14.00
2006,10,02,17,53,14.00
2006,10,02,17,54,13.90
2006,10,02,17,55,13.90
2006,10,02,17,56,13.90
2006,10,02,17,57,13.90
2006,10,02,17,58,13.90
2006,10,02,17,59,13.80
2006,10,02,18,00,13.80
2006,10,02,18,01,13.80
2006,10,02,18,02,13.80
2006,10,02,18,03,13.80
2006,10,02,18,04,13.70
2006,10,02,18,05,13.70
2006,10,02,18,06,13.60
2006,10,02,18,07,13.60
2006,10,02,18,08,13.60
2006,10,02,18,09,13.50
2006,10,02,18,10,13.50
2006,10,02,18,11,13.50
2006,10,02,18,12,13.50
2006,10,02,18,13,13.50
2006,10,02,18,14,13.50
2006,10,02,18,15,13.40
2006,10,02,18,16,13.40
2006,10,02,18,17,13.40
2006,10,02,18,18,13.40
2006,10,02,18,19,13.40
2006,10,02,18,20,13.30
2006,10,02,18,21,13.30
2006,10,02,18,22,13.30
2006,10,02,18,23,13.30
2006,10,02,18,24,13.30
2006,10,02,18,25,13.30
2006,10,02,18,26,13.30
2006,10,02,18,27,13.20
2006,10,02,18,28,13.20
2006,10,02,18,29,13.20
2006,10,02,18,30,13.20
2006,10,02,18,31,13.10
2006,10,02,18,32,13.00
2006,10,02,18,33,13.00
2006,10,02,18,34,13.00
2006,10,02,18,35,12.90
2006,10,02,18,36,12.90
2006,10,02,18,37,12.90
2006,10,02,18,38,12.80
2006,10,02,18,39,12.80
2006,10,02,18,40,12.80
2006,10,02,18,41,12.80
2006,10,02,18,42,12.70
2006,10,02,18,43,12.70
2006,10,02,18,44,12.60
2006,10,02,18,45,12.60
2006,10,02,18,46,12.60
2006,10,02,18,47,12.50
2006,10,02,18,48,12.50
2006,10,02,18,49,12.40
2006,10,02,18,50,12.40
2006,10,02,18,51,12.40
2006,10,02,18,52,12.40
2006,10,02,18,53,12.40
2006,10,02,18,54,12.30
2006,10,02,18,55,12.30
2006,10,02,18,56,12.30
2006,10,02,18,57,12.30
2006,10,02,18,58,12.30
2006,10,02,18,59,12.20
2006,10,02,19,00,12.20
2006,10,02,19,01,12.20
2006,10,02,19,02,12.20
2006,10,02,19,03,12.20
2006,10,02,19,04,12.20
2006,10,02,19,05,12.10
2006,10,02,19,06,12.10
2006,10,02,19,07,12.10
2006,10,02,19,08,12.10
2006,10,02,19,09,12.00
2006,10,02,19,10,12.00
2006,10,02,19,11,12.00
2006,10,02,19,12,11.90
2006,10,02,19,13,11.90
2006,10,02,19,14,11.90
2006,10,02,19,15,11.90
2006,10,02,19,16,11.80
2006,10,02,19,17,11.80
2006,10,02,19,18,11.80
2006,10,02,19,19,11.80
2006,10,02,19,20,11.80
2006,10,02,19,21,11.70
2006,10,02,19,22,11.70
2006,10,02,19,23,11.70
2006,10,02,19,24,11.70
2006,10,02,19,25,11.60
2006,10,02,19,26,11.60
2006,10,02,19,27,11.50
2006,10,02,19,28,11.50
2006,10,02,19,29,11.50
2006,10,02,19,30,11.40
2006,10,02,19,31,11.40
2006,10,02,19,32,11.40
2006,10,02,19,33,11.40
2006,10,02,19,34,11.40
2006,10,02,19,35,11.40
2006,10,02,19,36,11.30
2006,10,02,19,37,11.30
2006,10,02,19,38,11.30
2006,10,02,19,39,11.30
2006,10,02,19,40,11.30
2006,10,02,19,41,11.30
2006,10,02,19,42,11.30
2006,10,02,19,43,11.30
2006,10,02,19,44,11.30
2006,10,02,19,45,11.30
2006,10,02,19,46,11.30
2006,10,02,19,47,11.30
2006,10,02,19,48,11.30
2006,10,02,19,49,11.30
2006,10,02,19,50,11.30
2006,10,02,19,51,11.20
2006,10,02,19,52,11.20
2006,10,02,19,53,11.20
2006,10,02,19,54,11.20
2006,10,02,19,55,11.10
2006,10,02,19,56,11.10
2006,10,02,19,57,11.10
2006,10,02,19,58,11.00
2006,10,02,19,59,11.00
2006,10,02,20,00,10.90
2006,10,02,20,01,10.80
2006,10,02,20,02,10.80
2006,10,02,20,03,10.80
2006,10,02,20,04,10.70
2006,10,02,20,05,10.60
2006,10,02,20,06,10.60
2006,10,02,20,07,10.60
2006,10,02,20,08,10.50
2006,10,02,20,09,10.40
2006,10,02,20,10,10.40
2006,10,02,20,11,10.40
2006,10,02,20,12,10.30
2006,10,02,20,13,10.20
2006,10,02,20,14,10.10
2006,10,02,20,15,10.00
2006,10,02,20,16,9.90
2006,10,02,20,17,9.90
2006,10,02,20,18,9.80
2006,10,02,20,19,9.80
2006,10,02,20,20,9.80
2006,10,02,20,21,9.80
2006,10,02,20,22,9.70
2006,10,02,20,23,9.70
2006,10,02,20,24,9.70
2006,10,02,20,25,9.70
2006,10,02,20,26,9.70
2006,10,02,20,27,9.70
2006,10,02,20,28,9.60
2006,10,02,20,29,9.60
2006,10,02,20,30,9.60
2006,10,02,20,31,9.60
2006,10,02,20,32,9.60
2006,10,02,20,33,9.60
2006,10,02,20,34,9.60
2006,10,02,20,35,9.50
2006,10,02,20,36,9.50
2006,10,02,20,37,9.50
2006,10,02,20,38,9.40
2006,10,02,20,39,9.40
2006,10,02,20,40,9.40
2006,10,02,20,41,9.40
2006,10,02,20,42,9.40
2006,10,02,20,43,9.40
2006,10,02,20,44,9.40
2006,10,02,20,45,9.40
2006,10,02,20,46,9.40
2006,10,02,20,47,9.30
2006,10,02,20,48,9.30
2006,10,02,20,49,9.30
2006,10,02,20,50,9.30
2006,10,02,20,51,9.30
2006,10,02,20,52,9.30
2006,10,02,20,53,9.30
2006,10,02,20,54,9.30
2006,10,02,20,55,9.20
2006,10,02,20,56,9.20
2006,10,02,20,57,9.20
2006,10,02,20,58,9.20
2006,10,02,20,59,9.20
2006,10,02,21,00,9.20
2006,10,02,21,01,9.10
2006,10,02,21,02,9.10
2006,10,02,21,03,9.10
2006,10,02,21,04,9.10
2006,10,02,21,05,9.10
2006,10,02,21,06,9.10
2006,10,02,21,07,9.10
2006,10,02,21,08,9.10
2006,10,02,21,09,9.10
2006,10,02,21,10,9.10
2006,10,02,21,11,9.10
2006,10,02,21,12,9.10
2006,10,02,21,13,9.10
2006,10,02,21,14,9.10
2006,10,02,21,15,9.10
2006,10,02,21,16,9.10
2006,10,02,21,17,9.10
2006,10,02,21,18,9.10
2006,10,02,21,19,9.10
2006,10,02,21,20,9.10
2006,10,02,21,21,9.10
2006,10,02,21,22,9.10
2006,10,02,21,23,9.10
2006,10,02,21,24,9.10
2006,10,02,21,25,9.10
2006,10,02,21,26,9.20
2006,10,02,21,27,9.20
2006,10,02,21,28,9.20
2006,10,02,21,29,9.20
2006,10,02,21,30,9.30
2006,10,02,21,31,9.30
2006,10,02,21,32,9.30
2006,10,02,21,33,9.30
2006,10,02,21,34,9.40
2006,10,02,21,35,9.40
2006,10,02,21,36,9.40
2006,10,02,21,37,9.40
2006,10,02,21,38,9.40
2006,10,02,21,39,9.40
2006,10,02,21,40,9.40
2006,10,02,21,41,9.40
2006,10,02,21,42,9.40
2006,10,02,21,43,9.40
2006,10,02,21,44,9.40
2006,10,02,21,45,9.40
2006,10,02,21,46,9.40
2006,10,02,21,47,9.40
2006,10,02,21,48,9.40
2006,10,02,21,49,9.40
2006,10,02,21,50,9.40
2006,10,02,21,51,9.40
2006,10,02,21,52,9.40
2006,10,02,21,53,9.40
2006,10,02,21,54,9.40
2006,10,02,21,55,9.40
2006,10,02,21,56,9.40
2006,10,02,21,57,9.40
2006,10,02,21,58,9.40
2006,10,02,21,59,9.40
2006,10,02,22,00,9.40
2006,10,02,22,01,9.40
2006,10,02,22,02,9.40
2006,10,02,22,03,9.40
2006,10,02,22,04,9.30
2006,10,02,22,05,9.30
2006,10,02,22,06,9.30
2006,10,02,22,07,9.30
2006,10,02,22,08,9.30
2006,10,02,22,09,9.30
2006,10,02,22,10,9.30
2006,10,02,22,11,9.30
2006,10,02,22,12,9.30
2006,10,02,22,13,9.30
2006,10,02,22,14,9.20
2006,10,02,22,15,9.20
2006,10,02,22,16,9.20
2006,10,02,22,17,9.20
2006,10,02,22,18,9.20
2006,10,02,22,19,9.20
2006,10,02,22,20,9.20
2006,10,02,22,21,9.10
2006,10,02,22,22,9.10
2006,10,02,22,23,9.10
2006,10,02,22,24,9.10
2006,10,02,22,25,9.10
2006,10,02,22,26,9.00
2006,10,02,22,27,9.00
2006,10,02,22,28,9.00
2006,10,02,22,29,9.00
2006,10,02,22,30,8.90
2006,10,02,22,31,8.90
2006,10,02,22,32,8.90
2006,10,02,22,33,8.90
2006,10,02,22,34,8.90
2006,10,02,22,35,8.90
2006,10,02,22,36,8.90
2006,10,02,22,37,8.90
2006,10,02,22,38,8.90
2006,10,02,22,39,8.80
2006,10,02,22,40,8.80
2006,10,02,22,41,8.80
2006,10,02,22,42,8.80
2006,10,02,22,43,8.80
2006,10,02,22,44,8.80
2006,10,02,22,45,8.80
2006,10,02,22,46,8.80
2006,10,02,22,47,8.80
2006,10,02,22,48,8.80
2006,10,02,22,49,8.80
2006,10,02,22,50,8.80
2006,10,02,22,51,8.80
2006,10,02,22,52,8.80
2006,10,02,22,53,8.70
2006,10,02,22,54,8.70
2006,10,02,22,55,8.70
2006,10,02,22,56,8.70
2006,10,02,22,57,8.70
2006,10,02,22,58,8.70
2006,10,02,22,59,8.70
2006,10,02,23,00,8.70
2006,10,02,23,01,8.70
2006,10,02,23,02,8.70
2006,10,02,23,03,8.70
2006,10,02,23,04,8.70
2006,10,02,23,05,8.70
2006,10,02,23,06,8.70
2006,10,02,23,07,8.70
2006,10,02,23,08,8.70
2006,10,02,23,09,8.70
2006,10,02,23,10,8.70
2006,10,02,23,11,8.70
2006,10,02,23,12,8.70
2006,10,02,23,13,8.70
2006,10,02,23,14,8.70
2006,10,02,23,15,8.70
2006,10,02,23,16,8.70
2006,10,02,23,17,8.70
2006,10,02,23,18,8.70
2006,10,02,23,19,8.70
2006,10,02,23,20,8.70
2006,10,02,23,21,8.70
2006,10,02,23,22,8.70
2006,10,02,23,23,8.70
2006,10,02,23,24,8.70
2006,10,02,23,25,8.70
2006,10,02,23,26,8.60
2006,10,02,23,27,8.60
2006,10,02,23,28,8.60
2006,10,02,23,29,8.60
2006,10,02,23,30,8.60
2006,10,02,23,31,8.50
2006,10,02,23,32,8.50
2006,10,02,23,33,8.50
2006,10,02,23,34,8.40
2006,10,02,23,35,8.40
2006,10,02,23,36,8.40
2006,10,02,23,37,8.40
2006,10,02,23,38,8.30
2006,10,02,23,39,8.30
2006,10,02,23,40,8.30
2006,10,02,23,41,8.30
2006,10,02,23,42,8.30
2006,10,02,23,43,8.30
2006,10,02,23,44,8.20
2006,10,02,23,45,8.20
2006,10,02,23,46,8.20
2006,10,02,23,47,8.20
2006,10,02,23,48,8.20
2006,10,02,23,49,8.20
2006,10,02,23,50,8.20
2006,10,02,23,51,8.20
2006,10,02,23,52,8.20
2006,10,02,23,53,8.10
2006,10,02,23,54,8.10
2006,10,02,23,55,8.10
2006,10,02,23,56,8.10
2006,10,02,23,57,8.10
2006,10,02,23,58,8.10
2006,10,02,23,59,8.10
